Dewpoint
45 45 45 44 43 43 43 43 43 44 44 44 44 44 45 44 42 37 36 38 33 30 30 32 29 24 24 23 21 26 21 23 23 17 14 17 17 16 16 16 15 11 8 7 9 -3 2 16 16 12 15 15 16 16
45 45 45 44 44 44 44 43 44 44 43 43 43 44 45 44 43 38 35 37 35 32 31 34 31 31 27 26 28 27 22 25 24 20 19 19 20 19 17 12 14 9 14 14 14 12 17 18 16 17 19 18 18 20
45 45 45 44 44 44 43 43 43 44 44 44 44 44 44 44 42 39 35 34 30 27 27 25 26 30 31 30 30 25 27 27 27 27 22 21 18 20 13 15 16 17 18 17 16 13 13 17 18 20 20 21 24 27
45 45 44 44 44 43 43 43 43 44 44 44 44 43 43 43 42 39 36 35 30 24 19 21 29 27 29 30 29 27 27 30 29 27 17 19 20 22 17 16 16 17 16 16 15 16 19 20 22 24 31 32 31 31
44 44 43 43 43 43 43 43 44 44 44 43 43 43 42 42 42 39 37 36 34 27 21 22 26 28 28 29 30 31 30 29 23 19 14 17 21 21 21 21 19 18 16 17 14 18 21 22 31 35 34 32 30 31
43 43 43 43 43 43 44 44 43 43 43 43 42 41 40 40 38 32 28 36 37 32 21 14 25 24 26 28 30 33 34 33 30 22 18 20 25 20 12 18 20 21 20 20 19 29 34 34 34 32 29 29 28 27
43 43 43 43 43 43 43 43 43 42 42 41 41 40 41 38 35 30 28 32 37 32 19 14 19 22 27 26 26 26 28 27 25 22 21 23 24 26 21 17 18 19 22 31 35 35 29 27 26 27 27 29 30 29
43 43 43 43 43 43 42 42 42 40 39 39 41 42 40 39 37 32 35 39 34 29 25 10 18 21 25 22 21 27 21 22 21 22 22 22 24 26 23 23 21 29 32 31 32 30 29 28 27 26 26 28 30 28
42 42 42 43 43 42 42 41 41 40 41 41 41 39 35 33 32 33 39 36 34 27 18 17 15 10 25 25 25 24 26 20 26 21 24 24 23 21 22 22 24 31 31 30 30 29 25 24 25 25 26 27 29 29
42 42 43 43 42 42 41 43 43 42 42 39 34 26 21 33 37 34 29 25 23 24 24 20 22 18 22 20 19 21 23 23 19 24 27 23 22 23 23 26 31 31 28 28 25 21 24 25 25 26 26 28 29 30
43 43 42 42 42 41 42 42 42 39 37 31 26 26 33 37 31 24 15 14 18 18 24 25 23 20 27 22 23 26 21 26 21 22 23 23 22 27 29 27 27 27 27 28 26 26 26 27 26 25 26 28 29 29
41 42 42 42 42 41 42 41 39 35 33 33 34 32 30 26 24 12 8 19 21 21 24 22 22 25 27 33 28 27 24 23 18 27 24 19 24 29 25 24 24 26 27 26 26 26 27 27 27 26 26 26 28 29
42 42 42 42 42 41 41 40 41 38 36 32 28 23 22 18 7 3 2 14 13 21 26 23 22 25 31 32 27 25 19 18 27 24 21 24 26 25 24 24 25 26 27 26 26 27 27 27 28 27 26 26 27 28
41 41 41 41 41 42 41 41 39 36 32 26 17 9 10 9 16 18 19 24 29 29 25 24 19 28 30 26 25 19 22 25 17 13 15 27 26 23 24 25 25 25 26 25 25 26 26 26 25 25 23 24 26 27
41 41 40 41 42 41 41 40 38 34 30 27 23 12 12 20 21 22 22 25 27 29 27 22 22 24 25 23 26 23 18 15 17 14 21 28 29 29 24 25 26 26 23 24 25 21 19 20 20 21 22 22 24 25
40 40 37 41 41 41 40 37 33 32 29 27 26 20 20 17 12 14 20 22 28 28 28 26 20 17 18 21 23 16 14 8 12 18 25 27 29 29 25 27 27 26 25 21 19 18 19 16 15 19 18 19 20 22
37 31 37 41 41 41 38 32 30 28 27 25 19 23 21 18 16 17 21 24 29 24 16 23 13 18 21 18 21 21 12 16 22 24 27 29 29 29 27 27 25 24 25 23 20 20 16 18 13 14 16 17 23 21
34 37 39 41 38 38 36 34 30 28 23 25 19 18 21 21 19 19 23 26 26 25 26 23 24 22 14 16 15 17 21 21 23 25 28 30 31 30 29 27 27 26 25 22 21 20 19 16 20 21 19 21 23 17
35 40 41 39 35 33 32 32 33 25 24 24 23 22 22 21 23 24 24 25 28 29 28 25 21 20 20 21 18 19 21 23 23 24 27 28 29 28 28 29 29 26 23 22 23 22 22 23 23 22 21 23 20 19
39 40 40 39 37 32 29 28 34 28 24 23 24 21 23 21 23 20 24 25 27 27 26 25 21 21 21 22 24 24 25 26 25 23 20 23 27 28 28 28 26 25 25 25 23 20 20 20 20 20 25 18 16 16
38 39 40 37 36 35 29 28 28 27 26 23 24 24 21 24 22 20 22 26 25 21 23 25 23 24 23 26 29 30 28 27 25 25 25 24 25 27 26 27 27 25 23 21 20 19 17 17 18 24 20 14 12 13
35 39 36 37 33 32 29 28 26 27 26 24 24 25 20 13 14 19 26 21 21 23 23 22 23 24 26 25 22 24 26 25 26 26 26 26 23 23 23 23 24 23 21 19 21 20 18 21 20 18 12 11 12 14
38 37 34 34 28 24 22 26 25 25 19 18 24 20 17 19 24 26 17 23 24 28 29 29 27 27 26 27 25 25 24 24 23 23 24 24 25 23 22 23 23 21 20 21 20 18 16 13 14 12 11 10 5 7
38 32 29 26 24 16 25 19 25 23 21 18 16 12 17 18 23 20 19 21 26 25 24 24 25 23 23 21 21 21 24 25 23 23 22 21 19 19 20 20 20 20 15 14 14 13 12 8 7 6 2 2 5 5
28 26 27 19 23 19 16 12 15 20 10 13 15 10 16 23 13 13 16 19 23 23 19 22 22 21 18 18 20 21 22 22 19 19 18 19 17 15 14 16 18 19 16 8 3 0 2 1 1 3 5 4 6 7
22 21 21 18 15 18 16 9 9 9 10 8 14 19 19 13 13 13 17 17 16 19 17 20 20 18 20 21 19 16 14 19 18 14 14 17 15 12 6 5 5 8 15 11 3 4 6 3 -0 2 4 4 4 6
20 19 25 24 23 23 14 16 20 14 10 10 14 12 14 10 5 14 20 16 19 19 21 21 22 21 18 17 16 15 15 16 16 16 19 18 18 19 12 3 2 9 13 12 10 10 11 8 3 6 5 5 5 6
23 23 20 22 21 23 12 13 14 13 16 21 17 9 7 9 12 18 19 21 21 23 23 22 21 20 17 14 12 8 6 3 6 9 10 10 11 10 9 8 7 13 10 9 10 10 8 9 7 7 6 5 6 7
25 25 21 17 14 18 18 17 18 21 21 20 12 9 13 20 18 19 20 23 25 23 18 13 5 1 5 3 -1 1 -0 0 0 -3 -6 -1 -1 -1 0 3 4 6 6 6 7 11 9 9 10 9 8 8 7 6
21 25 19 15 16 17 19 20 16 17 20 21 20 19 18 18 17 17 20 21 19 14 12 7 1 5 2 -0 -4 -3 -6 -7 -3 -2 -5 0 1 1 0 1 2 3 3 4 6 6 9 9 9 6 3 3 3 3
23 22 14 15 12 15 15 8 11 11 10 15 11 13 15 12 11 9 9 6 4 1 4 1 -1 -6 -2 -12 -8 -9 -3 -3 -11 -0 7 5 -0 -1 2 2 3 5 6 6 6 6 6 6 5 4 3 2 2 3
18 18 15 11 10 12 11 8 4 5 3 14 12 8 7 3 2 3 -1 2 1 -2 3 2 -1 -0 0 -2 -4 0 4 2 -3 -6 -4 -6 -3 -1 1 2 6 7 6 4 4 4 4 4 4 5 4 4 4 3
14 9 9 11 11 10 10 13 10 5 3 3 4 -1 -0 2 1 2 -0 -4 4 7 4 1 0 -6 -2 5 7 2 -3 -6 -5 2 5 5 -1 0 2 4 3 3 3 3 3 3 3 2 2 2 1 1 0 -1
Lifted_Index
7 7 7 8 8 9 9 9 10 10 10 10 10 10 10 11 11 10 10 9 8 8 7 7 7 7 7 7 7 7 7 6 6 5 5 5 5 5 4 4 4 3 3 3 3 3 2 2 2 2 2 2 2 2
6 7 7 7 8 8 9 9 9 9 9 9 9 9 9 9 10 10 9 9 8 8 8 8 8 7 7 7 7 6 6 5 5 5 5 5 5 4 4 3 3 3 3 3 3 3 3 2 2 2 2 2 2 2
6 6 7 7 7 7 8 8 8 8 8 8 8 8 8 8 9 9 9 9 9 8 8 8 7 7 7 6 6 5 5 5 4 4 4 4 4 4 3 3 4 4 3 3 3 3 3 3 2 2 2 2 2 2
6 6 6 7 7 7 7 7 7 7 7 7 8 8 8 8 9 9 9 9 8 8 8 7 7 6 6 5 5 5 5 4 4 4 4 3 3 3 4 4 4 4 4 4 3 3 3 3 2 2 2 2 2 2
6 6 6 6 7 7 7 7 7 7 7 7 7 8 8 8 8 8 8 7 7 7 7 6 6 5 5 5 4 4 4 3 3 2 2 3 3 3 3 4 3 3 4 4 3 3 3 2 2 3 3 3 3 4
5 6 6 6 6 6 6 6 6 6 6 7 7 7 7 7 7 7 6 6 6 6 6 5 5 5 4 4 4 3 3 2 1 1 1 1 2 2 3 3 3 4 4 3 3 2 2 2 3 4 4 4 4 5
5 5 5 5 5 5 5 5 5 6 6 6 6 6 6 6 6 6 6 6 6 6 6 5 5 4 4 3 3 2 2 1 0 0 0 1 1 2 2 2 3 3 3 3 2 2 3 3 4 5 5 5 4 4
5 5 5 5 5 5 5 5 5 5 6 5 5 5 5 5 5 5 5 5 5 6 5 5 4 3 3 3 2 2 1 1 1 1 1 1 1 2 2 2 3 3 2 2 3 3 4 5 5 6 6 5 4 4
4 4 4 4 4 5 5 5 5 5 5 5 5 5 5 5 5 5 5 5 5 5 5 4 3 3 3 3 2 2 1 1 1 1 1 1 2 2 2 2 2 2 3 3 4 5 5 5 6 7 7 6 5 4
4 4 4 4 4 4 4 4 4 4 4 4 4 4 4 4 4 5 5 5 5 5 4 3 2 2 2 3 2 2 2 2 2 2 2 2 2 2 2 2 2 3 4 4 5 5 6 6 6 7 7 7 6 5
4 4 4 4 4 4 4 4 4 4 4 4 4 4 4 4 4 5 5 5 4 3 3 2 2 2 2 2 2 2 2 2 2 2 2 2 2 2 2 2 3 4 5 5 6 6 6 7 7 7 8 8 8 7
4 4 3 3 3 3 3 3 4 4 4 3 4 4 4 4 4 4 4 4 3 2 2 2 2 2 2 2 2 2 2 2 2 2 2 2 2 2 2 3 4 5 5 6 6 6 7 7 8 8 8 9 9 8
4 4 3 3 3 3 3 3 3 3 3 3 3 4 4 4 4 4 3 3 2 2 2 2 2 2 2 2 2 2 2 2 2 2 2 2 2 2 3 4 4 5 5 6 6 7 7 7 8 8 9 9 9 9
4 4 4 3 3 3 3 3 4 4 3 3 3 3 3 4 4 3 2 2 1 1 2 2 2 2 2 2 2 2 2 2 2 2 1 2 2 3 3 4 4 5 5 6 6 7 7 8 8 9 9 9 10 10
5 4 4 4 3 3 3 3 4 4 3 3 3 3 3 3 3 2 2 1 2 2 2 2 2 2 2 2 2 2 2 2 2 1 1 2 2 3 3 4 4 5 5 6 7 7 8 8 9 9 10 10 10 10
5 5 5 4 3 3 4 4 4 4 3 3 3 3 3 3 3 2 2 2 2 2 2 2 2 2 2 1 1 1 1 1 2 2 2 2 2 3 3 4 4 5 5 6 7 8 8 9 9 10 10 11 11 11
6 6 6 5 4 4 5 5 4 4 4 3 3 3 3 3 3 3 3 3 2 2 3 3 2 2 2 1 1 1 1 2 2 2 3 3 3 3 4 4 4 5 5 6 7 8 8 9 9 10 10 11 11 11
7 7 6 6 6 6 6 6 5 5 4 4 4 3 3 3 3 3 3 3 3 3 3 3 3 3 2 2 2 2 2 2 3 3 3 3 3 3 4 4 4 5 5 6 7 7 8 8 9 9 10 10 11 11
7 7 6 6 7 7 7 6 6 6 5 5 5 4 4 4 4 4 4 4 4 3 3 3 3 3 3 3 3 3 3 3 3 3 3 3 3 3 4 4 4 5 5 6 6 7 7 8 8 9 9 10 10 11
7 7 7 7 7 7 7 7 6 6 6 5 5 5 4 4 4 4 4 4 4 4 3 4 4 3 3 3 3 3 3 3 3 3 3 3 3 3 4 4 4 5 5 6 7 7 7 7 8 9 9 10 10 10
7 7 7 7 7 7 7 7 6 6 6 5 5 5 5 4 4 4 4 4 4 4 3 3 3 3 3 3 3 3 3 3 3 3 3 3 4 4 4 4 5 5 6 6 7 7 7 8 8 9 9 10 11 11
7 7 7 7 7 7 7 6 6 6 5 5 5 5 4 4 4 4 4 4 3 3 3 3 3 3 3 3 3 3 3 3 4 4 4 5 5 5 5 6 6 6 6 7 7 7 8 8 9 10 10 11 11 12
7 7 7 7 7 7 6 6 6 5 5 5 5 5 4 4 4 4 4 3 3 3 3 3 3 3 3 3 3 4 4 5 5 6 6 7 7 7 8 8 8 8 8 8 8 9 9 10 10 11 11 12 12 12
8 8 8 8 7 7 6 6 5 5 5 5 5 5 4 4 4 4 3 3 3 3 3 3 3 4 4 4 4 5 6 7 7 8 9 9 10 10 10 9 10 10 10 10 10 10 11 11 11 11 12 12 12 12
8 8 8 8 8 7 6 6 5 5 5 5 5 5 4 4 4 3 3 3 4 4 4 4 5 5 5 6 7 8 9 10 10 10 11 11 11 11 11 11 11 11 11 11 11 11 11 11 11 11 11 11 11 11
8 8 8 8 7 7 7 6 6 6 6 5 5 5 4 4 3 3 3 4 5 5 5 6 6 6 7 8 9 10 11 12 12 12 12 12 12 12 12 11 11 11 12 12 12 11 11 10 10 9 9 9 10 10
9 8 8 8 7 7 7 7 6 6 6 5 5 5 4 4 3 4 5 5 6 6 6 7 8 8 9 10 11 12 13 13 13 13 13 13 13 13 12 12 12 12 12 12 12 11 11 10 9 9 9 9 9 9
8 8 8 7 7 7 7 7 7 6 6 5 5 5 4 4 4 5 6 6 6 7 7 8 9 10 11 12 13 13 14 14 13 13 13 13 12 12 12 12 12 12 12 12 12 11 11 10 10 10 10 9 9 10
7 7 7 7 7 7 7 7 6 6 6 5 5 5 5 5 5 6 6 6 7 7 8 9 10 11 12 12 13 14 14 14 13 13 12 11 11 11 12 12 11 11 11 11 11 11 11 11 11 11 10 10 10 10
7 7 7 7 7 7 7 6 6 6 6 5 5 5 5 5 6 6 6 7 8 9 9 10 11 11 12 13 13 13 14 14 13 13 12 11 11 11 11 11 11 11 11 10 10 11 11 11 11 11 10 10 10 10
7 7 7 7 7 7 7 7 6 6 6 6 6 6 6 6 6 7 8 9 9 10 10 11 11 12 12 13 13 13 13 13 13 13 12 12 12 12 12 12 11 11 11 11 10 10 11 10 10 10 10 9 9 9
8 7 7 7 7 7 7 7 7 7 6 6 6 6 6 6 6 8 9 10 11 11 11 12 12 12 13 13 14 14 13 13 13 13 12 12 12 12 12 12 12 12 11 11 11 11 10 10 10 9 9 9 9 9
8 8 8 8 8 8 8 7 7 7 6 5 5 5 6 6 6 8 10 11 11 12 12 12 13 13 13 14 14 14 13 13 13 12 12 12 12 12 12 12 12 12 11 11 11 11 11 10 10 9 9 9 9 9